Location: Zagreb
(45.8000°N, 16.0000°E)
Time: 08:55:01
(UTC+02:00)

Courier 1B - Pass Details

Date: 13 August 2020
Orbit: 962 x 1209 km, 28.3° (Epoch: 27 September)

Event Time Altitude Azimuth Distance (km) Brightness Sun altitude
Rises 18:15:46 0° 219° (SW) 4,051 11.3 18.0°
Reaches altitude 10° 18:20:04 10° 198° (SSW) 3,050 10.3 17.3°
Maximum altitude 18:23:59 15° 166° (SSE) 2,650 9.7 16.6°
Drops below altitude 10° 18:27:47 10° 134° (SE) 2,961 9.6 16.0°
Sets 18:31:52 0° 112° (ESE) 3,865 10.0 15.2°
